Regional Weather Roundup
Issued by NWS Green Bay, WI

Home | Current Version | Previous Version | Graphics & Text | Print | Product List | Glossary Off
Versions: 1 2 3 4 5 6 7 8 9 10 11 12 13 14 15 16 17 18 19 20 21 22 23 24 25 26 27 28 29 30 31 32 33 34 35 36 37 38 39 40 41 42 43 44 45 46 47 48 49 50

000
ASUS43 KGRB 252200
RWRGRB

NORTH-CENTRAL AND NORTHEAST WISCONSIN REGIONAL WEATHER ROUNDUP
NATIONAL WEATHER SERVICE GREEN BAY WI
400 PM CST SAT FEB 25 2017

WIZ005-009-010>012-018-019-252300-
NORTH CENTRAL WISCONSIN

CITY           SKY/WX    TMP DP  RH WIND       PRES   REMARKS
IRONWOOD       MOSUNNY   23   9  55 W14G21    29.77R
MANITOWISH WTR NOT AVBL
ARBOR VITAE    NOT AVBL
EAGLE RIVER    NOT AVBL
LAND O LAKES   NOT AVBL
RHINELANDER    SUNNY     23   8  52 W15G24    29.75S
PHILLIPS       NOT AVBL
ANTIGO         NOT AVBL
TOMAHAWK       NOT AVBL
MERRILL        NOT AVBL
$$

WIZ013-073-252300-
NORTHEAST WISCONSIN

CITY           SKY/WX    TMP DP  RH WIND       PRES   REMARKS
IRON MOUNTAIN  CLOUDY    21   8  57 W20       29.73R WCI   6
MARINETTE      CLOUDY    25  13  60 W9G16     29.79
$$

WIZ017-030-035>037-045-252300-
CENTRAL WISCONSIN

CITY           SKY/WX    TMP DP  RH WIND       PRES   REMARKS
MEDFORD        NOT AVBL
WAUSAU         SUNNY     22   7  52 W15       29.81R WCI   9
MOSINEE        SUNNY     21   9  58 W14       29.84R WCI   8
MARSHFIELD     SUNNY     23   6  48 W16G22    29.83R WCI  10
WISC RAPIDS    SUNNY     25   7  46 NW14      29.88R
STEVENS POINT  NOT AVBL
WAUPACA        NOT AVBL
SHAWANO        NOT AVBL
CLINTONVILLE   NOT AVBL
WAUTOMA        SUNNY     24  11  57 W16       29.88R
$$

WIZ038-039-048-051-252300-
FOX VALLEY

CITY           SKY/WX    TMP DP  RH WIND       PRES   REMARKS
NWS GREEN BAY  SUNNY     23  12  62 W15G26    29.84R
APPLETON       MOSUNNY   21   9  58 W15G23    29.83R WCI   8
OSHKOSH        SUNNY     22  10  60 W9        29.86R
FOND DU LAC    SUNNY     22  10  60 W14       29.87R WCI   9
$$

WIZ022-050-052-252300-
EAST CENTRAL WISCONSIN

CITY           SKY/WX    TMP DP  RH WIND       PRES   REMARKS
EPHRAIM        NOT AVBL
WASHINGTON ISL NOT AVBL
STURGEON BAY   CLOUDY    25  16  68 W13G24    29.79R
MANITOWOC      NOT AVBL
SHEBOYGAN      PTSUNNY   22  12  65 W14G21    29.85R WCI   9
$$

LMZ563-521-522-541>543-252300-
LAKESHORE

STATION/POSITION TIME  TEMP    WIND        PRES    VSBY  WAVE
                       AIR SEA DIR/SP/G                  HT/PER
                 (UTC) (F)     (DEG/KT/KT) (MB)    (MI)  (FT/S)
SHEBOYGAN LKSHOR 2100   22     280/ 16/ 20 1011.4R
KEWAUNEE LKSHORE 2130   23     290/ 20/ 26 1008.6R
NORTHPORT PIER   2140   26     290/  1/  2 1007.5R
SISTER BAY LKSHO 2135   25        CALM       N/A
CHAMBERS ISLAND  2140   26      CALM  /  2 1007.8R
MENOMINEE LKSHOR 2130   25     260/ 12/ 19 1007.6R
$$



USA.gov is the U.S. government's official web portal to all federal, state and local government web resources and services.